• In Russia
  • List of Countries
  • For 7 days
  • Water Temperature
  • Satellite Maps
  • Weather Map
  • Weather Widgets
  • user-avatar
    Login

    Hourly Weather Klagenfurt

    Today, 22 June, Thursday

    Time Temperature Precipitation Wind Pressure Humidity
    00:00 +13°C° 0 mm 0 mps 690 mmHg 91%
    01:00 +14°C° 0 mm 1 mps 690 mmHg 90%
    02:00 +13°C° 0 mm 1 mps 690 mmHg 90%
    03:00 +12°C° 0 mm 0 mps 690 mmHg 90%
    04:00 +12°C° 0 mm 0 mps 690 mmHg 90%
    05:00 +15°C° 0 mm 0 mps 691 mmHg 82%
    06:00 +18°C° 0 mm 0 mps 692 mmHg 73%
    07:00 +23°C° 0 mm 1 mps 692 mmHg 63%
    08:00 +25°C° 0 mm 1 mps 693 mmHg 56%
    09:00 +27°C° 0 mm 1 mps 693 mmHg 49%
    10:00 +29°C° 0 mm 1 mps 694 mmHg 42%
    11:00 +30°C° 0 mm 1 mps 694 mmHg 40%
    12:00 +31°C° 0 mm 1 mps 694 mmHg 38%
    13:00 +31°C° 0 mm 1 mps 694 mmHg 36%
    14:00 +31°C° 0.1 mm 2 mps 693 mmHg 39%
    15:00 +30°C° 0.1 mm 2 mps 693 mmHg 41%
    16:00 +30°C° 0.1 mm 2 mps 693 mmHg 44%
    17:00 +28°C° 0.1 mm 2 mps 692 mmHg 54%
    18:00 +26°C° 0.1 mm 1 mps 692 mmHg 64%
    19:00 +24°C° 0.1 mm 1 mps 691 mmHg 75%
    20:00 +22°C° 0.1 mm 1 mps 691 mmHg 78%
    21:00 +20°C° 0.1 mm 1 mps 691 mmHg 82%
    22:00 +19°C° 0.1 mm 1 mps 691 mmHg 86%
    23:00 +19°C° 0 mm 1 mps 691 mmHg 86%

    Tomorrow, 23 June, Friday

    Time Temperature Precipitation Wind Pressure Humidity
    00:00 +19°C° 0 mm 1 mps 691 mmHg 86%
    01:00 +18°C° 0 mm 1 mps 691 mmHg 86%
    02:00 +18°C° 0 mm 1 mps 691 mmHg 87%
    03:00 +16°C° 0 mm 1 mps 690 mmHg 88%
    04:00 +16°C° 0 mm 1 mps 690 mmHg 89%
    05:00 +19°C° 0 mm 1 mps 690 mmHg 83%
    06:00 +21°C° 0 mm 1 mps 691 mmHg 76%
    07:00 +23°C° 0 mm 1 mps 691 mmHg 70%
    08:00 +25°C° 0 mm 1 mps 692 mmHg 61%
    09:00 +27°C° 0 mm 1 mps 692 mmHg 52%
    10:00 +29°C° 0 mm 2 mps 693 mmHg 44%
    11:00 +30°C° 0 mm 2 mps 693 mmHg 41%
    12:00 +30°C° 0 mm 2 mps 693 mmHg 39%
    13:00 +31°C° 0 mm 2 mps 693 mmHg 37%
    14:00 +31°C° 0.1 mm 2 mps 693 mmHg 40%
    15:00 +30°C° 0.1 mm 2 mps 692 mmHg 43%
    16:00 +30°C° 0.1 mm 2 mps 692 mmHg 45%
    17:00 +28°C° 0.1 mm 2 mps 692 mmHg 55%
    18:00 +26°C° 0.1 mm 2 mps 692 mmHg 65%
    19:00 +24°C° 0.1 mm 1 mps 691 mmHg 74%
    20:00 +22°C° 0 mm 1 mps 691 mmHg 79%
    21:00 +20°C° 0 mm 1 mps 691 mmHg 84%
    22:00 +19°C° 0 mm 1 mps 691 mmHg 88%
    23:00 +18°C° 0 mm 1 mps 691 mmHg 90%

    Day after tomorrow, 24 June, Saturday

    Time Temperature Precipitation Wind Pressure Humidity
    00:00 +16°C° 0 mm 1 mps 691 mmHg 91%
    01:00 +15°C° 0 mm 1 mps 691 mmHg 92%
    02:00 +15°C° 0 mm 1 mps 691 mmHg 93%
    03:00 +15°C° 0 mm 1 mps 691 mmHg 93%
    04:00 +15°C° 0 mm 1 mps 691 mmHg 94%
    05:00 +18°C° 0 mm 1 mps 692 mmHg 88%
    06:00 +20°C° 0 mm 1 mps 692 mmHg 82%
    07:00 +22°C° 0 mm 1 mps 693 mmHg 77%
    08:00 +23°C° 0 mm 1 mps 693 mmHg 71%
    09:00 +25°C° 0 mm 1 mps 693 mmHg 65%
    10:00 +26°C° 0 mm 1 mps 693 mmHg 59%
    11:00 +27°C° 0.3 mm 1 mps 693 mmHg 58%
    12:00 +27°C° 0.3 mm 1 mps 693 mmHg 57%
    13:00 +28°C° 0.3 mm 2 mps 692 mmHg 56%
    14:00 +28°C° 0.7 mm 2 mps 692 mmHg 59%
    15:00 +27°C° 0.7 mm 2 mps 692 mmHg 62%
    16:00 +27°C° 0.7 mm 2 mps 691 mmHg 65%
    17:00 +26°C° 0.6 mm 1 mps 691 mmHg 72%
    18:00 +24°C° 0.6 mm 1 mps 691 mmHg 79%
    19:00 +23°C° 0.6 mm 1 mps 690 mmHg 86%
    20:00 +22°C° 1 mm 1 mps 690 mmHg 88%
    21:00 +20°C° 1 mm 1 mps 690 mmHg 91%
    22:00 +19°C° 1 mm 1 mps 690 mmHg 93%
    23:00 +18°C° 1.1 mm 1 mps 690 mmHg 93%

    25 June, Sunday

    Time Temperature Precipitation Wind Pressure Humidity
    00:00 +18°C° 1.1 mm 1 mps 689 mmHg 93%
    01:00 +18°C° 1.1 mm 1 mps 689 mmHg 93%
    02:00 +18°C° 2.1 mm 1 mps 689 mmHg 93%
    03:00 +18°C° 2.1 mm 1 mps 689 mmHg 94%
    04:00 +16°C° 2.1 mm 1 mps 689 mmHg 95%
    05:00 +18°C° 1.5 mm 1 mps 689 mmHg 93%
    06:00 +19°C° 1.5 mm 1 mps 689 mmHg 91%
    07:00 +20°C° 1.5 mm 1 mps 690 mmHg 89%
    08:00 +21°C° 1.4 mm 1 mps 690 mmHg 84%
    09:00 +22°C° 1.4 mm 1 mps 690 mmHg 79%
    10:00 +23°C° 1.4 mm 1 mps 690 mmHg 74%
    11:00 +24°C° 1.3 mm 1 mps 690 mmHg 71%
    12:00 +24°C° 1.3 mm 1 mps 690 mmHg 69%
    13:00 +25°C° 1.3 mm 1 mps 690 mmHg 66%
    14:00 +25°C° 1 mm 1 mps 690 mmHg 66%
    15:00 +25°C° 1 mm 1 mps 690 mmHg 66%
    16:00 +25°C° 1 mm 1 mps 690 mmHg 66%
    17:00 +24°C° 1 mm 1 mps 690 mmHg 74%
    18:00 +23°C° 1 mm 1 mps 690 mmHg 81%
    19:00 +20°C° 1 mm 0 mps 690 mmHg 89%
    20:00 +20°C° 0.6 mm 1 mps 690 mmHg 90%
    21:00 +19°C° 0.6 mm 1 mps 690 mmHg 92%
    22:00 +16°C° 0.6 mm 1 mps 690 mmHg 93%
    23:00 +16°C° 0.7 mm 1 mps 690 mmHg 93%

    26 June, Monday

    Time Temperature Precipitation Wind Pressure Humidity
    00:00 +16°C° 0.7 mm 1 mps 690 mmHg 93%
    01:00 +16°C° 0.7 mm 1 mps 690 mmHg 93%
    02:00 +16°C° 1.2 mm 1 mps 690 mmHg 94%
    03:00 +16°C° 1.2 mm 1 mps 690 mmHg 95%
    04:00 +16°C° 1.2 mm 1 mps 690 mmHg 95%
    05:00 +16°C° 0.8 mm 1 mps 691 mmHg 94%
    06:00 +18°C° 0.8 mm 1 mps 691 mmHg 93%
    07:00 +18°C° 0.8 mm 1 mps 691 mmHg 92%
    08:00 +19°C° 0.2 mm 1 mps 691 mmHg 87%
    09:00 +20°C° 0.2 mm 1 mps 692 mmHg 82%
    10:00 +20°C° 0.2 mm 2 mps 692 mmHg 77%
    11:00 +21°C° 0.1 mm 2 mps 692 mmHg 71%
    12:00 +23°C° 0.1 mm 2 mps 692 mmHg 65%
    13:00 +25°C° 0.1 mm 2 mps 691 mmHg 59%
    14:00 +25°C° 0.1 mm 2 mps 691 mmHg 60%
    15:00 +25°C° 0.1 mm 2 mps 691 mmHg 61%
    16:00 +25°C° 0.1 mm 1 mps 690 mmHg 62%
    17:00 +24°C° 0 mm 1 mps 690 mmHg 69%
    18:00 +23°C° 0 mm 1 mps 690 mmHg 76%
    19:00 +21°C° 0 mm 1 mps 690 mmHg 83%
    20:00 +20°C° 0 mm 1 mps 689 mmHg 87%
    21:00 +18°C° 0 mm 1 mps 689 mmHg 91%
    22:00 +15°C° 0 mm 1 mps 689 mmHg 95%
    23:00 +14°C° 0 mm 1 mps 688 mmHg 95%

    27 June, Tuesday

    Time Temperature Precipitation Wind Pressure Humidity
    00:00 +14°C° 0 mm 1 mps 688 mmHg 96%
    01:00 +12°C° 0 mm 0 mps 688 mmHg 96%
    02:00 +14°C° 0 mm 1 mps 687 mmHg 96%
    03:00 +14°C° 0 mm 1 mps 687 mmHg 96%
    04:00 +14°C° 0 mm 1 mps 687 mmHg 96%
    05:00 +16°C° 0 mm 1 mps 687 mmHg 91%
    06:00 +19°C° 0 mm 1 mps 688 mmHg 86%
    07:00 +21°C° 0 mm 1 mps 688 mmHg 82%
    08:00 +23°C° 0 mm 2 mps 688 mmHg 72%
    09:00 +25°C° 0 mm 2 mps 688 mmHg 63%
    10:00 +26°C° 0 mm 3 mps 689 mmHg 54%
    11:00 +27°C° 0 mm 3 mps 688 mmHg 51%
    12:00 +28°C° 0 mm 3 mps 688 mmHg 47%
    13:00 +29°C° 0 mm 4 mps 688 mmHg 44%
    14:00 +29°C° 0 mm 4 mps 688 mmHg 45%
    15:00 +28°C° 0 mm 4 mps 688 mmHg 46%
    16:00 +28°C° 0 mm 4 mps 687 mmHg 47%
    17:00 +26°C° 0.1 mm 3 mps 687 mmHg 56%
    18:00 +25°C° 0.1 mm 2 mps 687 mmHg 65%
    19:00 +23°C° 0.1 mm 1 mps 686 mmHg 74%
    20:00 +21°C° 0 mm 1 mps 686 mmHg 78%
    21:00 +20°C° 0 mm 1 mps 686 mmHg 82%
    22:00 +18°C° 0 mm 1 mps 686 mmHg 86%
    23:00 +18°C° 0 mm 1 mps 686 mmHg 87%
    Show more